Location: Unspecified
(0.0000°N, 0.0000°E)
Time: 12:24:49
(UTC+00:00)

Envisat - Pass Details

Date: 14 January 2019
Orbit: 764 x 766 km, 98.2° (Epoch: 22 March)

Event Time Altitude Azimuth Distance (km) Brightness Sun altitude
Rises 19:50:44 0° 188° (S) 3,228 6.7 -23.6°
Reaches altitude 10° 19:53:17 10° 198° (SSW) 2,300 6.0 -24.2°
Maximum altitude 19:57:38 29° 258° (WSW) 1,369 4.9 -25.2°
Drops below altitude 10° 20:01:59 10° 317° (NW) 2,293 5.7 -26.1°
Sets 20:04:33 0° 328° (NNW) 3,217 6.3 -26.7°
